Torna al catalogo

ARIANE 1 DEB

AttivoSSO
NORAD 16616·DEBRIS·🇫🇷 France

Lanciato Feb 22, 1986 da Guiana Space Centre

Loading…

Prossimi Passaggi (prossime 24 ore)

TLE

AggiornatoSource: Space-Track

Epoca: Sep 14, 2026, 14:37 UTC

1 16616U 86019D   26257.60945196  .00000231  00000-0  10285-3 0  9991
2 16616  98.2778 249.4258 0006915 333.5227  98.8433 14.31372954111033

Traccia ARIANE 1 DEB in tempo reale con AllMySat

Download on the App Store